Nantucket, MA

8:16 AM EST on December 03, 2016 (GMT -0500)
Nantucket Memorial

Weather History for KACK - July, 2012

Change the Weather History Date:

Wednesday, July 4, 2012

  Actual Average Record
Temperature  
Mean Temperature 72 °F -  
Max Temperature 78 °F 74 °F 90 °F (2010)
Min Temperature 66 °F 58 °F 33 °F (1996)
Cooling Degree Days 6    
Growing Degree Days 22 (Base 50)    
Moisture  
Dew Point 67 °F    
Average Humidity 90    
Maximum Humidity 97    
Minimum Humidity 76    
Precipitation  
Precipitation 0.06 in - - ()
Sea Level Pressure  
Sea Level Pressure 29.80 in    
Wind  
Wind Speed 11 mph (SW)    
Max Wind Speed 15 mph    
Max Gust Speed 22 mph    
Visibility 9 miles    
Events Rain    
Averages and records for this station are not official NWS values.
T = Trace of Precipitation, MM = Missing Value Source: NWS Daily Summary

Daily Weather History Graph

Daily Weather History Graph

Search for Another Location

Airport or City:

Trip Planner

Search our weather history database for the weather conditions in past years. The results will help you decide how hot, cold, wet, or windy it might be!

Date:

Astronomy

Jul. 04, 2012 Rise Set
Actual Time 5:12 AM EDT 8:16 PM EDT
Civil Twilight 4:39 AM EDT 8:49 PM EDT
Nautical Twilight 3:56 AM EDT 9:32 PM EDT
Astronomical Twilight 3:06 AM EDT 10:22 PM EDT
Moon 8:51 PM EDT (7/4) 6:12 AM EDT (7/4)
Length of Visible Light 16h 10m
Length of Day
15h 03m
Full, 99% of the Moon is Illuminated
Jul 4
Full
Jul 10
Last Quarter
Jul 19
New
Jul 26
First Quarter
Aug 1
Full

Hourly Weather History & Observations

Time (EDT) Temp. Dew Point Humidity Pressure Visibility Wind Dir Wind Speed Gust Speed Precip Events Conditions
12:53 AM 66.9 °F 64.9 °F 93% 29.90 in 10.0 mi SSW 9.2 mph - N/A   Clear
1:53 AM 66.9 °F 66.0 °F 97% 29.88 in 10.0 mi South 10.4 mph - N/A   Scattered Clouds
2:53 AM 68.0 °F 66.9 °F 96% 29.87 in 10.0 mi South 11.5 mph - N/A   Clear
3:53 AM 68.0 °F 66.9 °F 96% 29.86 in 10.0 mi South 10.4 mph - N/A   Clear
4:53 AM 68.0 °F 66.2 °F 94% 29.86 in 10.0 mi South 11.5 mph - N/A   Clear
5:53 AM 68.0 °F 66.0 °F 93% 29.86 in 9.0 mi SSW 9.2 mph - N/A   Mostly Cloudy
6:53 AM 69.1 °F 66.9 °F 93% 29.86 in 9.0 mi SSW 13.8 mph - N/A   Overcast
7:53 AM 69.1 °F 68.0 °F 96% 29.86 in 8.0 mi WSW 11.5 mph - 0.00 in Rain Light Rain
8:53 AM 69.1 °F 66.0 °F 90% 29.84 in 8.0 mi WSW 10.4 mph - 0.04 in Rain Light Rain
9:53 AM 71.1 °F 66.9 °F 87% 29.82 in 10.0 mi SW 8.1 mph - 0.02 in   Mostly Cloudy
10:53 AM 70.0 °F 66.9 °F 90% 29.81 in 10.0 mi South 10.4 mph - N/A   Overcast
11:53 AM 71.1 °F 68.0 °F 90% 29.80 in 10.0 mi South 12.7 mph - N/A   Mostly Cloudy
12:53 PM 73.9 °F 70.0 °F 87% 29.79 in 10.0 mi South 12.7 mph - N/A   Clear
1:53 PM 73.9 °F 69.1 °F 85% 29.78 in 10.0 mi SSW 15.0 mph 21.9 mph N/A   Clear
2:53 PM 77.0 °F 69.1 °F 76% 29.78 in 10.0 mi SW 15.0 mph - N/A   Clear
3:53 PM 75.0 °F 69.1 °F 82% 29.78 in 10.0 mi SW 11.5 mph - N/A   Clear
4:53 PM 75.0 °F 68.0 °F 79% 29.75 in 10.0 mi SW 12.7 mph - N/A   Clear
5:53 PM 73.4 °F 66.2 °F 78% 29.74 in 10.0 mi SW 12.7 mph - N/A   Clear
6:53 PM 72.0 °F 66.9 °F 84% 29.75 in 10.0 mi SW 8.1 mph - N/A   Clear
7:53 PM 69.1 °F 66.9 °F 93% 29.75 in 8.0 mi SW 10.4 mph - N/A   Clear
8:53 PM 69.1 °F 68.0 °F 96% 29.73 in 8.0 mi WSW 13.8 mph - N/A   Clear
9:53 PM 68.0 °F 66.2 °F 94% 29.75 in 7.0 mi WSW 11.5 mph - N/A   Clear
10:53 PM 70.0 °F 68.0 °F 93% 29.75 in 7.0 mi SW 9.2 mph - N/A   Clear
11:53 PM 69.1 °F 68.0 °F 96% 29.73 in 5.0 mi WSW 12.7 mph - N/A   Clear